Weather in Tagilskoye

Russia / Kurgan Oblast     55°55′28″N   64°25′37″E
temp.,
°C
wind,
m/s
gust,
m/s
humid.,
%
clouds,
%
prec.,
mm/h
press.,
hPa
HPBL,
m
28 november, sun
sun2823:00−2wsw6148628 0.0 1026458
02:00−6sw5119150 0.0 1028216
05:00−6sw4109297 0.0 1028191
08:00−7sw41090100 0.0 1029167
11:00−6sw488428 0.0 1030157
14:00−4ssw49755 0.0 1029243
17:00−6ssw51270100 0.0 1028253
20:00−5ssw61372100 0.0 1027297
29 november, mon
mon2923:00−5ssw61376100 0.0 1026321
02:00−5ssw61475100 0.0 1025313
05:00−6ssw5137648 0.0 1024254
08:00−7ssw5117980 0.0 1024211
11:00−5ssw5107711 0.0 1024231
14:00−4ssw49785 0.0 1023220
17:00−6ssw38875 0.0 1023120
20:00−8sw368724 0.0 102382
30 november, tue
tue3023:00−8ssw358776 0.0 102266
02:00−4ssw3684100 0.0 1022123
05:00−3sw3687100 0.0 1021130
08:00−2ssw3588100 0.0 102093
11:00−2s487969 0.0 1020192
14:00−2s4116973 0.0 1019284
17:00−4s51285100 0.0 1017253
20:00−3s61590100 0.0 1015308
1 december, wed
wed123:00−2s81871100 0.0 1012396
02:00−1s82064100 0.0 1011470
05:00−1ssw92072100 0.1 1010524
08:000ssw81892100 2.3 1008533
11:00+1ssw71693100 2.3 1010532
14:00+1ssw71590100 0.0 1009472
17:00+1s71681100 0.0 1008419
20:000s71875100 0.0 1006387
2 december, thu
thu223:00+1s81971100 0.0 1005480
02:00+2s82070100 0.0 1002591
05:00+2s81776100 0.0 1000611
08:00+1ssw7158264 0.0 999499
11:00+2ssw71388100 0.0 1000462
14:00+1sw5109435 0.0 1000377
17:000wsw41085100 0.0 1001355
20:00−3wsw3889100 0.0 1003168